TimeMDT,TemperatureF,Dew PointF,Humidity,Sea Level PressureIn,VisibilityMPH,Wind Direction,Wind SpeedMPH,Gust SpeedMPH,PrecipitationIn,Events,Conditions,WindDirDegrees,DateUTC
12:53 AM,78.1,43.0,29,29.73,10.0,NW,25.3,33.4,N/A,,Clear,310,2013-07-06 06:53:00
1:53 AM,75.0,43.0,32,29.76,10.0,West,8.1,-,N/A,,Clear,280,2013-07-06 07:53:00
2:53 AM,72.0,43.0,35,29.74,10.0,SSE,4.6,-,N/A,,Scattered Clouds,160,2013-07-06 08:53:00
3:53 AM,72.0,43.0,35,29.74,10.0,NE,6.9,-,N/A,,Clear,50,2013-07-06 09:53:00
4:53 AM,72.0,43.0,35,29.74,10.0,Calm,Calm,-,N/A,,Clear,0,2013-07-06 10:53:00
5:53 AM,72.0,44.1,37,29.75,10.0,ESE,8.1,-,N/A,,Clear,110,2013-07-06 11:53:00
6:53 AM,72.0,45.0,38,29.76,10.0,ESE,3.5,-,N/A,,Partly Cloudy,120,2013-07-06 12:53:00
7:53 AM,73.0,48.0,41,29.78,10.0,Calm,Calm,-,N/A,,Mostly Cloudy,0,2013-07-06 13:53:00
8:53 AM,79.0,46.9,32,29.79,10.0,SE,4.6,-,N/A,,Partly Cloudy,130,2013-07-06 14:53:00
9:53 AM,80.1,50.0,35,29.79,10.0,WSW,6.9,-,N/A,,Clear,250,2013-07-06 15:53:00
10:53 AM,82.0,48.0,30,29.79,10.0,West,5.8,-,N/A,,Clear,280,2013-07-06 16:53:00
11:53 AM,86.0,46.9,26,29.78,10.0,WNW,10.4,-,N/A,,Clear,290,2013-07-06 17:53:00
12:53 PM,88.0,46.0,23,29.76,10.0,Variable,6.9,-,N/A,,Clear,0,2013-07-06 18:53:00
1:53 PM,90.0,45.0,21,29.73,10.0,West,9.2,-,N/A,,Clear,260,2013-07-06 19:53:00
2:53 PM,91.0,46.0,21,29.71,10.0,WSW,4.6,-,N/A,,Clear,250,2013-07-06 20:53:00
3:53 PM,91.9,46.0,21,29.68,10.0,West,8.1,-,N/A,,Clear,280,2013-07-06 21:53:00
4:53 PM,93.0,44.1,18,29.65,10.0,West,8.1,-,N/A,,Clear,260,2013-07-06 22:53:00
5:53 PM,91.0,42.1,18,29.64,10.0,West,5.8,-,N/A,,Clear,280,2013-07-06 23:53:00
6:53 PM,91.0,41.0,17,29.64,10.0,WNW,11.5,-,N/A,,Clear,300,2013-07-07 00:53:00
7:53 PM,82.9,45.0,26,29.69,8.0,West,24.2,35.7,N/A,,Scattered Clouds,280,2013-07-07 01:53:00
8:53 PM,79.0,46.9,32,29.73,10.0,West,12.7,-,N/A,,Clear,260,2013-07-07 02:53:00
9:53 PM,78.1,46.9,33,29.78,10.0,Variable,4.6,-,N/A,,Clear,0,2013-07-07 03:53:00
10:53 PM,75.9,46.9,36,29.80,10.0,Calm,Calm,-,N/A,,Clear,0,2013-07-07 04:53:00
11:53 PM,75.0,44.1,33,29.79,10.0,NE,4.6,-,N/A,,Clear,50,2013-07-07 05:53:00